30.06.2024;16:00;90
30.06.2024;15:00;91
30.06.2024;14:00;95
30.06.2024;13:00;91
30.06.2024;12:00;92
30.06.2024;11:00;85
30.06.2024;10:00;82
30.06.2024;09:00;78
30.06.2024;08:00;80
30.06.2024;07:00;86
30.06.2024;06:00;89
30.06.2024;05:00;71
30.06.2024;04:00;55
30.06.2024;03:00;48
30.06.2024;02:00;45
30.06.2024;01:00;45
30.06.2024;00:00;59
29.06.2024;23:00;61
29.06.2024;22:00;66
29.06.2024;21:00;72
29.06.2024;20:00;76
29.06.2024;19:00;85
29.06.2024;18:00;99
29.06.2024;17:00;102
29.06.2024;16:00;102
29.06.2024;15:00;103
29.06.2024;14:00;99
29.06.2024;13:00;92
29.06.2024;12:00;85
29.06.2024;11:00;77
29.06.2024;10:00;64
29.06.2024;09:00;43
29.06.2024;08:00;31
29.06.2024;07:00;16
29.06.2024;06:00;5
29.06.2024;05:00;5
29.06.2024;04:00;7
29.06.2024;03:00;6
29.06.2024;02:00;9
29.06.2024;01:00;22
29.06.2024;00:00;40
28.06.2024;23:00;60
28.06.2024;22:00;76
28.06.2024;21:00;93
28.06.2024;20:00;105
28.06.2024;19:00;107
28.06.2024;18:00;106
28.06.2024;17:00;108
